Regional Weather Roundup
Issued by NWS State College, PA

Home | Current Version | Previous Version | Graphics & Text | Print | Product List | Glossary Off
Versions: 1 2 3 4 5 6 7 8 9 10 11 12 13 14 15 16 17 18 19 20 21 22 23 24 25 26 27 28 29 30 31 32 33 34 35 36 37 38 39 40 41 42 43 44 45 46 47 48 49 50

000
ASUS41 KCTP 311703
RWRCTP

REGIONAL WEATHER ROUNDUP
NATIONAL WEATHER SERVICE STATE COLLEGE PA
100 PM EDT FRI JUL 31 2015

Note: "fair" indicates few or no clouds below 12,000 feet with no
significant weather and/or obstructions to visibility.

* = STATION THAT DOES NOT REPORT PRECIPITATION /E.G. RAIN...SNOW...ETC/
    THUNDER OR FOG.

PAZ002>004-007>009-013>016-020>023-029>032-311800-
WESTERN PENNSYLVANIA

CITY           SKY/WX    TMP DP  RH WIND       PRES   REMARKS
ERIE           SUNNY     80  64  58 W14G22    29.92F
MEADVILLE      PTSUNNY   80  57  45 W13G18    29.96F
FRANKLIN*      MOSUNNY   81  57  44 W12       29.98F
NEW CASTLE     PTSUNNY   83  57  40 W10       29.97F
BEAVER COUNTY  MOSUNNY   82  57  42 W5        29.98F
BUTLER*        MOSUNNY   84  57  39 W7        29.99F
PITTSBURGH INT MOSUNNY   84  56  38 W13G18    29.98F
PITTSBURGH     MOSUNNY   84  51  31 W13G20    29.98F
INDIANA*       MOSUNNY   79  61  53 W8        30.01F
LATROBE        PTSUNNY   81  59  47 SW12      30.00F
WASHINGTON CO* NOT AVBL
$$

PAZ004>006-010>012-017>019-024>028-033>037-041-042-045-046-049>053-311800-
CENTRAL PENNSYLVANIA

CITY           SKY/WX    TMP DP  RH WIND       PRES   REMARKS
BRADFORD       PTSUNNY   78  55  44 W9G18     29.97F
DUBOIS         PTSUNNY   80  58  46 W9        29.97F
CLEARFIELD     MOSUNNY   83  56  39 NW8       29.97
JOHNSTOWN      MOSUNNY   75  55  49 W6        30.03F
ALTOONA        MOSUNNY   82  58  43 MISG      29.99F
STATE COLLEGE  MOSUNNY   81  61  50 W7        29.96F
WILLIAMSPORT   MOSUNNY   84  57  39 SW8       29.89F
SELINSGROVE    PTSUNNY   82  61  48 VRB3      29.92F
FT INDIANTOWN  SUNNY     84  58  40 VRB7      29.92F
CAPITAL CITY   MOSUNNY   87  53  31 N9        29.91F
HARRISBURG     MOSUNNY   87  56  34 W10       29.90F
YORK           SUNNY     84  61  45 NW6       29.93F
$$

PAZ038>040-043-044-047-048-054-055-060>062-067>071-311800-
EASTERN PENNSYLVANIA

CITY           SKY/WX    TMP DP  RH WIND       PRES   REMARKS
SCRANTON       SUNNY     83  50  31 W3        29.92F
MOUNT POCONO   SUNNY     78  51  38 NW9G20    29.96F
ALLENTOWN      MOSUNNY   85  59  41 CALM      29.89F
QUAKERTOWN*    MOSUNNY   84  61  45 W6        29.92S
READING        MOSUNNY   86  61  42 W8        29.89F
LANCASTER      PTSUNNY   84  60  44 W8        29.91F
COATESVILLE    SUNNY     82  64  54 W6        29.94F
POTTSTOWN      SUNNY     84  59  42 N8        29.91F
BLUE BELL      MOSUNNY   86  59  39 N7        29.89F
DOYLESTOWN     SUNNY     84  57  39 NW10      29.89F
WILLOW GROVE   NOT AVBL
NORTH PHILA    MOSUNNY   90  53  28 W10       29.89F
PHILADELPHIA   MOSUNNY   88  54  31 N8        29.89F
$$



USA.gov is the U.S. government's official web portal to all federal, state and local government web resources and services.